timestamp,wind_dir_avg,wind_spd_avg,wind_spd_max_dir,wind_spd_gust,battery_voltage,lat,long
2021-05-27 00:04:01+00:00,204.0,5.39,209.0,6.24,12.81,47.59359,-54.27349
2021-05-27 00:14:01+00:00,208.0,5.24,207.0,6.31,12.57,47.59359,-54.27349
2021-05-27 00:24:01+00:00,217.0,7.68,213.0,9.32,12.57,47.59359,-54.27349
2021-05-27 00:34:01+00:00,213.0,7.26,216.0,7.96,12.57,47.59359,-54.27349
2021-05-27 00:44:01+00:00,211.0,7.42,208.0,8.31,12.57,47.59359,-54.27349
2021-05-27 00:54:01+00:00,209.0,7.04,214.0,8.19,12.57,47.59359,-54.27349
2021-05-27 01:04:01+00:00,200.0,6.8,201.0,7.88,12.57,47.59359,-54.27349
2021-05-27 01:14:01+00:00,208.0,7.51,211.0,8.24,12.57,47.59359,-54.27349
2021-05-27 01:24:01+00:00,206.0,7.8,201.0,9.04,12.57,47.59359,-54.27349
2021-05-27 01:34:01+00:00,212.0,7.93,217.0,9.16,12.57,47.59359,-54.27349
2021-05-27 01:44:01+00:00,216.0,8.03,215.0,9.26,12.57,47.59359,-54.27349
2021-05-27 01:54:01+00:00,213.0,7.77,215.0,8.52,12.57,47.59359,-54.27349
2021-05-27 02:04:01+00:00,213.0,7.18,218.0,8.25,12.57,47.59359,-54.27349
2021-05-27 02:14:00+00:00,210.0,8.17,213.0,8.82,12.57,47.59359,-54.27349
2021-05-27 02:24:00+00:00,208.0,7.21,209.0,8.33,12.57,47.59359,-54.27349
2021-05-27 02:34:00+00:00,215.0,8.49,210.0,10.41,12.57,47.59359,-54.27349
2021-05-27 02:44:00+00:00,220.0,8.0,226.0,9.38,12.57,47.59359,-54.27349
2021-05-27 02:54:00+00:00,217.0,7.81,218.0,8.75,12.57,47.59359,-54.27349
2021-05-27 03:04:00+00:00,214.0,8.97,210.0,10.09,12.57,47.59359,-54.27349
2021-05-27 03:14:01+00:00,216.0,8.72,223.0,9.92,12.57,47.59359,-54.27349
2021-05-27 03:24:01+00:00,214.0,9.77,220.0,10.92,12.57,47.59359,-54.27349
2021-05-27 03:34:01+00:00,213.0,8.35,214.0,9.71,12.57,47.59359,-54.27349
2021-05-27 03:44:01+00:00,215.0,9.72,214.0,11.11,12.57,47.59359,-54.27349
2021-05-27 03:54:01+00:00,214.0,9.52,216.0,10.65,12.57,47.59359,-54.27349
2021-05-27 04:04:01+00:00,217.0,11.22,219.0,12.48,12.57,47.59359,-54.27349
2021-05-27 04:14:00+00:00,218.0,8.63,219.0,9.68,12.49,47.59359,-54.27349
2021-05-27 04:24:00+00:00,221.0,9.81,219.0,11.1,12.49,47.59359,-54.27349
2021-05-27 04:34:00+00:00,215.0,9.19,215.0,10.16,12.49,47.59359,-54.27349
2021-05-27 04:44:00+00:00,215.0,8.49,220.0,9.6,12.49,47.59359,-54.27349
2021-05-27 04:54:00+00:00,218.0,7.97,215.0,8.92,12.49,47.59359,-54.27349
2021-05-27 05:04:00+00:00,202.0,9.79,203.0,10.66,12.49,47.59359,-54.27349
2021-05-27 05:14:00+00:00,206.0,9.43,209.0,10.23,12.49,47.59359,-54.27349
2021-05-27 05:24:00+00:00,211.0,9.29,217.0,10.21,12.49,47.59359,-54.27349
2021-05-27 05:34:00+00:00,209.0,9.13,207.0,10.21,12.49,47.59359,-54.27349
2021-05-27 05:44:00+00:00,197.0,8.83,198.0,9.84,12.49,47.59359,-54.27349
2021-05-27 05:54:00+00:00,199.0,8.91,204.0,9.69,12.49,47.59359,-54.27349
2021-05-27 06:04:00+00:00,207.0,9.95,212.0,11.86,12.49,47.59359,-54.27349
2021-05-27 06:14:00+00:00,212.0,10.95,214.0,12.74,12.49,47.59359,-54.27349
2021-05-27 06:24:00+00:00,212.0,10.58,216.0,12.25,12.49,47.59359,-54.27349
2021-05-27 06:34:00+00:00,210.0,9.91,214.0,11.5,12.49,47.59359,-54.27349
2021-05-27 06:44:00+00:00,209.0,9.22,207.0,10.12,12.49,47.59359,-54.27349
2021-05-27 06:54:00+00:00,214.0,10.3,213.0,12.5,12.49,47.59359,-54.27349
2021-05-27 07:04:00+00:00,210.0,11.18,214.0,12.72,12.49,47.59359,-54.27349
2021-05-27 07:14:01+00:00,205.0,10.56,208.0,12.13,12.41,47.59359,-54.27349
2021-05-27 07:24:01+00:00,203.0,9.52,208.0,10.86,12.41,47.59359,-54.27349
2021-05-27 07:34:01+00:00,213.0,9.37,217.0,11.24,12.41,47.59359,-54.27349
2021-05-27 07:44:01+00:00,212.0,9.14,217.0,11.42,12.41,47.59359,-54.27349
2021-05-27 07:54:01+00:00,214.0,8.94,214.0,10.94,12.41,47.59359,-54.27349
2021-05-27 08:04:01+00:00,210.0,10.73,211.0,12.84,12.41,47.59359,-54.27349
2021-05-27 08:14:00+00:00,214.0,10.56,206.0,13.41,12.41,47.59359,-54.27349
2021-05-27 08:24:00+00:00,210.0,10.76,210.0,11.81,12.41,47.59359,-54.27349
2021-05-27 08:34:00+00:00,210.0,9.96,212.0,10.86,12.41,47.59359,-54.27349
2021-05-27 08:44:00+00:00,208.0,9.7,206.0,11.05,12.41,47.59359,-54.27349
2021-05-27 08:54:00+00:00,207.0,11.1,208.0,12.18,12.41,47.59359,-54.27349
2021-05-27 09:04:00+00:00,208.0,9.84,206.0,11.06,12.41,47.59359,-54.27349
2021-05-27 09:14:00+00:00,207.0,10.04,205.0,11.65,12.41,47.59359,-54.27349
2021-05-27 09:24:00+00:00,210.0,8.99,213.0,10.06,12.41,47.59359,-54.27349
2021-05-27 09:34:00+00:00,215.0,8.6,217.0,9.92,12.41,47.59359,-54.27349
2021-05-27 09:44:00+00:00,216.0,8.03,216.0,9.13,12.41,47.59359,-54.27349
2021-05-27 09:54:00+00:00,204.0,9.09,205.0,10.51,12.41,47.59359,-54.27349
2021-05-27 10:04:00+00:00,216.0,9.54,217.0,11.24,12.41,47.59359,-54.27349
2021-05-27 10:14:01+00:00,228.0,8.23,231.0,10.0,12.65,47.59359,-54.27349
2021-05-27 10:24:01+00:00,221.0,8.44,233.0,9.77,12.65,47.59359,-54.27349
2021-05-27 10:34:01+00:00,218.0,7.31,226.0,8.62,12.65,47.59359,-54.27349
2021-05-27 10:44:01+00:00,215.0,8.52,217.0,9.86,12.65,47.59359,-54.27349
2021-05-27 10:54:01+00:00,212.0,8.3,216.0,10.74,12.65,47.59359,-54.27349
2021-05-27 11:04:01+00:00,214.0,9.34,213.0,10.56,12.65,47.59359,-54.27349
2021-05-27 11:14:00+00:00,209.0,8.66,208.0,9.99,13.44,47.59359,-54.27349
2021-05-27 11:24:00+00:00,210.0,9.97,212.0,11.18,13.44,47.59359,-54.27349
2021-05-27 11:34:00+00:00,214.0,9.52,220.0,10.67,13.44,47.59359,-54.27349
2021-05-27 11:44:00+00:00,207.0,8.92,201.0,10.32,13.44,47.59359,-54.27349
2021-05-27 11:54:00+00:00,203.0,10.1,201.0,11.47,13.44,47.59359,-54.27349
2021-05-27 12:04:00+00:00,201.0,9.83,205.0,11.34,13.44,47.59359,-54.27349
2021-05-27 12:14:01+00:00,194.0,9.34,198.0,10.55,13.68,47.59359,-54.27349
2021-05-27 12:24:01+00:00,195.0,10.34,193.0,11.58,13.68,47.59359,-54.27349
2021-05-27 12:34:01+00:00,203.0,11.04,199.0,12.87,13.68,47.59359,-54.27349
2021-05-27 12:44:01+00:00,201.0,9.89,204.0,11.34,13.68,47.59359,-54.27349
2021-05-27 12:54:01+00:00,205.0,10.98,204.0,12.94,13.68,47.59359,-54.27349
2021-05-27 13:04:01+00:00,205.0,11.31,211.0,13.22,13.68,47.59359,-54.27349
2021-05-27 13:14:01+00:00,209.0,11.95,213.0,13.32,13.84,47.59359,-54.27349
2021-05-27 13:24:01+00:00,206.0,10.8,207.0,12.74,13.84,47.59359,-54.27349
2021-05-27 13:34:01+00:00,207.0,10.86,210.0,12.36,13.84,47.59359,-54.27349
2021-05-27 13:44:01+00:00,205.0,10.4,206.0,12.41,13.84,47.59359,-54.27349
2021-05-27 13:54:01+00:00,203.0,9.7,210.0,10.57,13.84,47.59359,-54.27349
2021-05-27 14:04:01+00:00,206.0,9.85,204.0,10.93,13.84,47.59359,-54.27349
2021-05-27 14:14:01+00:00,206.0,9.75,210.0,11.13,13.84,47.59359,-54.27349
2021-05-27 14:24:01+00:00,204.0,11.34,203.0,12.49,13.84,47.59359,-54.27349
2021-05-27 14:34:01+00:00,202.0,10.16,205.0,11.61,13.84,47.59359,-54.27349
2021-05-27 14:44:01+00:00,207.0,10.22,208.0,11.63,13.84,47.59359,-54.27349
2021-05-27 14:54:01+00:00,214.0,10.79,214.0,11.71,13.84,47.59359,-54.27349
2021-05-27 15:04:01+00:00,214.0,11.63,213.0,13.16,13.84,47.59359,-54.27349
2021-05-27 15:14:01+00:00,215.0,11.92,216.0,13.49,13.84,47.59359,-54.27349
2021-05-27 15:24:01+00:00,200.0,11.34,203.0,12.78,13.84,47.59359,-54.27349
2021-05-27 15:34:01+00:00,201.0,10.6,202.0,12.27,13.84,47.59359,-54.27349
2021-05-27 15:44:01+00:00,200.0,10.32,200.0,11.49,13.84,47.59359,-54.27349
2021-05-27 15:54:01+00:00,201.0,9.73,203.0,10.48,13.84,47.59359,-54.27349
2021-05-27 16:04:01+00:00,203.0,9.72,206.0,11.09,13.84,47.59359,-54.27349
2021-05-27 16:14:01+00:00,206.0,9.16,204.0,10.07,13.68,47.59359,-54.27349
2021-05-27 16:24:01+00:00,202.0,9.99,206.0,11.1,13.68,47.59359,-54.27349
2021-05-27 16:34:01+00:00,206.0,10.06,210.0,11.02,13.68,47.59359,-54.27349
2021-05-27 16:44:01+00:00,204.0,10.32,203.0,11.66,13.68,47.59359,-54.27349
2021-05-27 16:54:01+00:00,206.0,10.09,203.0,10.96,13.68,47.59359,-54.27349
2021-05-27 17:04:01+00:00,207.0,9.5,209.0,10.39,13.68,47.59359,-54.27349
2021-05-27 17:14:01+00:00,208.0,9.1,207.0,10.37,13.84,47.59359,-54.27349
2021-05-27 17:24:01+00:00,209.0,9.36,210.0,10.67,13.84,47.59359,-54.27349
2021-05-27 17:34:01+00:00,213.0,9.19,217.0,9.88,13.84,47.59359,-54.27349
2021-05-27 17:44:01+00:00,211.0,10.44,214.0,11.42,13.84,47.59359,-54.27349
2021-05-27 17:54:01+00:00,208.0,7.95,206.0,9.0,13.84,47.59359,-54.27349
2021-05-27 18:04:01+00:00,210.0,9.67,209.0,10.74,13.84,47.59359,-54.27349
2021-05-27 18:14:01+00:00,210.0,10.18,207.0,11.06,13.68,47.59359,-54.27349
2021-05-27 18:24:01+00:00,220.0,11.65,222.0,12.98,13.68,47.59359,-54.27349
2021-05-27 18:34:01+00:00,217.0,10.23,218.0,12.09,13.68,47.59359,-54.27349
2021-05-27 18:44:01+00:00,206.0,11.07,213.0,13.27,13.68,47.59359,-54.27349
2021-05-27 18:54:01+00:00,211.0,10.34,212.0,11.32,13.68,47.59359,-54.27349
2021-05-27 19:04:01+00:00,212.0,10.7,222.0,12.0,13.68,47.59359,-54.27349
2021-05-27 19:14:01+00:00,209.0,8.1,213.0,9.06,13.6,47.59359,-54.27349
2021-05-27 19:24:01+00:00,207.0,8.47,206.0,9.22,13.6,47.59359,-54.27349
2021-05-27 19:34:01+00:00,203.0,7.95,199.0,8.69,13.6,47.59359,-54.27349
2021-05-27 19:44:01+00:00,212.0,8.34,208.0,9.31,13.6,47.59359,-54.27349
2021-05-27 19:54:01+00:00,209.0,10.39,218.0,11.67,13.6,47.59359,-54.27349
2021-05-27 20:04:01+00:00,208.0,10.84,209.0,12.36,13.6,47.59359,-54.27349
2021-05-27 20:14:01+00:00,211.0,9.79,208.0,10.5,13.76,47.59359,-54.27349
2021-05-27 20:24:01+00:00,211.0,9.09,212.0,10.13,13.76,47.59359,-54.27349
2021-05-27 20:34:01+00:00,208.0,9.91,211.0,10.87,13.76,47.59359,-54.27349
2021-05-27 20:44:01+00:00,207.0,9.12,209.0,10.15,13.76,47.59359,-54.27349
2021-05-27 20:54:01+00:00,201.0,7.55,204.0,8.2,13.76,47.59359,-54.27349
2021-05-27 21:04:01+00:00,201.0,9.14,203.0,10.06,13.76,47.59359,-54.27349
2021-05-27 21:14:01+00:00,203.0,9.73,206.0,10.48,13.44,47.59359,-54.27349
2021-05-27 21:24:01+00:00,206.0,8.6,209.0,9.8,13.44,47.59359,-54.27349
2021-05-27 21:34:01+00:00,189.0,9.14,193.0,9.92,13.44,47.59359,-54.27349
2021-05-27 21:44:01+00:00,199.0,9.54,202.0,10.49,13.44,47.59359,-54.27349
2021-05-27 21:54:01+00:00,209.0,8.98,210.0,10.05,13.44,47.59359,-54.27349
2021-05-27 22:04:01+00:00,212.0,7.47,214.0,8.33,13.44,47.59359,-54.27349
2021-05-27 22:14:01+00:00,205.0,7.92,207.0,9.58,13.21,47.59359,-54.27349
2021-05-27 22:24:01+00:00,209.0,9.03,206.0,10.31,13.21,47.59359,-54.27349
2021-05-27 22:34:01+00:00,215.0,7.59,215.0,8.58,13.21,47.59359,-54.27349
2021-05-27 22:44:01+00:00,208.0,7.56,206.0,9.02,13.21,47.59359,-54.27349
2021-05-27 22:54:01+00:00,210.0,8.4,211.0,9.25,13.21,47.59359,-54.27349
2021-05-27 23:04:01+00:00,217.0,9.03,216.0,10.26,13.21,47.59359,-54.27349
2021-05-27 23:14:01+00:00,208.0,9.11,210.0,10.23,12.81,47.59359,-54.27349
2021-05-27 23:24:01+00:00,209.0,8.66,210.0,9.53,12.81,47.59359,-54.27349
2021-05-27 23:34:01+00:00,207.0,7.92,206.0,9.16,12.81,47.59359,-54.27349
2021-05-27 23:44:01+00:00,202.0,8.33,207.0,9.29,12.81,47.59359,-54.27349
2021-05-27 23:54:01+00:00,206.0,7.39,205.0,8.59,12.81,47.59359,-54.27349
